User: anonymous   Login
Location: Unspecified
(0.0000°N, 0.0000°E)
Time: 08:07:11
(UTC+00:00)
Language:

SWISSCUBE - Orbit

View from above orbital plane
View from above orbital plane
View from above satellite
View from above satellite

Ground track
Ground track

The orbit data is extracted from the following two-line orbital elements,

1 35932U 09051B   19346.03617775  .00000097  00000-0  32905-4 0  9995
2 35932  98.5995 157.3533 0007365 353.0307   7.0786 14.56338485542442
Epoch (UTC): 12 December 2019 00:52:05
Eccentricity: 0.0007365
inclination: 98.5995°
perigee height: 700 km
apogee height: 710 km
right ascension of ascending node: 157.3533°
argument of perigee: 353.0307°
revolutions per day: 14.56338485
mean anomaly at epoch: 7.0786°
orbit number at epoch: 54244

The dashed part of the orbit path shows where the satellite is in the earth's shadow,  

DLR